Regional Weather Roundup
Issued by NWS Northern Indiana

Home | Current Version | Previous Version | Graphics & Text | Print | Product List | Glossary On
Versions: 1 2 3 4 5 6 7 8 9 10 11 12 13 14 15 16 17 18 19 20 21 22 23 24 25 26 27 28 29 30 31 32 33 34 35 36 37 38 39 40 41 42 43 44 45 46 47 48 49 50
000
ASUS43 KIWX 250400
RWRIWX

KIWX WEATHER ROUNDUP
NATIONAL WEATHER SERVICE NORTHERN INDIANA
1200 AM EDT FRI APR 25 2014

NOTE: "FAIR" INDICATES FEW OR NO CLOUDS BELOW 12,000 FEET WITH NO
SIGNIFICANT WEATHER AND/OR OBSTRUCTIONS TO VISIBILITY.

* THESE STATIONS ARE NOT UNDER NWS QUALITY CONTROL. THEY ALSO MAY NOT
  REPORT WEATHER SUCH AS PRECIPITATION OR FOG.

INZ001>027-250500-
NORTHERN INDIANA

CITY           SKY/WX    TMP DP  RH WIND       PRES   REMARKS
GARY*          CLOUDY    59  27  28 SE14G23   29.68F
VALPARAISO     CLOUDY    54  30  40 SE14G24   29.71F
SOUTH BEND     LGT RAIN  55  29  36 SE15      29.77F
GOSHEN         CLOUDY    51  30  44 E12       29.76F
MONTICELLO*    LGT RAIN  58  32  38 SE5       29.69F
ANGOLA*        CLEAR     45  28  53 SE12      29.81F
FORT WAYNE     CLOUDY    50  27  40 E13       29.78F

$$
INZ028>050-250500-
CENTRAL INDIANA

CITY           SKY/WX    TMP DP  RH WIND       PRES   REMARKS
LAFAYETTE      CLOUDY    57  38  48 SE13      29.67F
KOKOMO*          N/A    N/A N/A N/A MISG        N/A
MUNCIE*        MOCLDY    56  24  29 SE12      29.75F
INDIANAPOLIS   CLOUDY    59  36  42 SE14      29.70F

$$
MIZ043>046-050>051-056>058-064>065-071>073-077>080-250500-
SOUTHWEST LOWER MICHIGAN

CITY           SKY/WX    TMP DP  RH WIND       PRES   REMARKS
BATTLE CREEK   CLOUDY    46  23  40 SE9       29.82F
BENTON HARBOR  CLOUDY    51  30  44 SE15      29.75F
COLDWATER*     CLOUDY    44  24  45 E7        29.81F
HILLSDALE*     MOCLDY    45  25  45 E12       29.83S
HOLLAND        CLOUDY    50  27  40 E13       29.79F
GRAND RAPIDS   CLOUDY    48  22  35 E14       29.82F
KALAMAZOO      CLOUDY    48  26  42 E10       29.80F
STURGIS*       CLOUDY    46  27  46 E12       29.78F
THREE RIVERS*  FAIR      48  27  44 E9        29.79F

$$
OHZ001>008-015>018-024>025-250500-
NORTHWEST OHIO

CITY           SKY/WX    TMP DP  RH WIND       PRES   REMARKS
DEFIANCE       CLOUDY    45  28  51 E9        29.82F
FINDLAY        MOCLDY    46  33  60 E9        29.81F
TOLEDO EXPRESS CLOUDY    44  25  47 E9        29.84F
TOLEDO METCALF MOCLDY    44  26  49 E9        29.85F
LIMA           MOCLDY    51  29  42 SE12      29.80F

$$
&&



USA.gov is the U.S. government's official web portal to all federal, state and local government web resources and services.